| time (UTC) | temp C | wind direction | speed KPH | gust KPH | rain 1hr cm | rain 24hr cm | rain mn cm | humidity % | barometer mb |
| 20260504004537 | 12 | 158 | 1.6 | 0.0 | 0.00 | 0.00 | 0.00 | 33 | 1010.8 |
| 20260504003037 | 13 | 133 | 1.6 | 0.0 | 0.00 | 0.00 | 0.00 | 32 | 1010.5 |
| 20260504001534 | 13 | 140 | 1.6 | 0.0 | 0.00 | 0.00 | 0.00 | 30 | 1010.3 |
| 20260504000033 | 13 | 159 | 3.2 | 0.0 | 0.00 | 0.00 | 0.00 | 29 | 1010.2 |
| 20260503234540 | 14 | 183 | 6.4 | 0.0 | 0.00 | 0.00 | 0.00 | 28 | 1010.0 |
| 20260503233031 | 14 | 157 | 9.7 | 0.0 | 0.00 | 0.00 | 0.00 | 28 | 1009.9 |
| 20260503231534 | 15 | 195 | 11.3 | 0.0 | 0.00 | 0.00 | 0.00 | 27 | 1009.8 |
| 20260503230038 | 15 | 158 | 8.0 | 0.0 | 0.00 | 0.00 | 0.00 | 27 | 1009.8 |
| 20260503224532 | 15 | 179 | 9.7 | 0.0 | 0.00 | 0.00 | 0.00 | 26 | 1009.7 |
| 20260503223031 | 15 | 171 | 11.3 | 0.0 | 0.00 | 0.00 | 0.00 | 25 | 1009.4 |
| 20260503221539 | 15 | 203 | 14.5 | 0.0 | 0.00 | 0.00 | 0.00 | 25 | 1009.6 |
| 20260503220030 | 15 | 206 | 9.7 | 0.0 | 0.00 | 0.00 | 0.00 | 26 | 1009.6 |
| 20260503214529 | 15 | 216 | 16.1 | 0.0 | 0.00 | 0.00 | 0.00 | 25 | 1009.4 |
| 20260503213029 | 15 | 222 | 12.9 | 0.0 | 0.00 | 0.00 | 0.00 | 25 | 1009.4 |
| 20260503211528 | 15 | 205 | 14.5 | 0.0 | 0.00 | 0.00 | 0.00 | 25 | 1009.4 |
| 20260503210029 | 15 | 179 | 17.7 | 0.0 | 0.00 | 0.00 | 0.00 | 26 | 1009.3 |
| 20260503204543 | 15 | 308 | 14.5 | 0.0 | 0.00 | 0.00 | 0.00 | 25 | 1009.4 |
| 20260503203028 | 15 | 195 | 16.1 | 0.0 | 0.00 | 0.00 | 0.00 | 25 | 1009.6 |
| 20260503201529 | 15 | 216 | 16.1 | 0.0 | 0.00 | 0.00 | 0.00 | 26 | 1009.7 |
| 20260503200029 | 15 | 209 | 11.3 | 0.0 | 0.00 | 0.00 | 0.00 | 26 | 1009.8 |
| 20260503194528 | 15 | 145 | 17.7 | 0.0 | 0.00 | 0.00 | 0.00 | 27 | 1009.9 |
| 20260503193035 | 15 | 154 | 17.7 | 0.0 | 0.00 | 0.00 | 0.00 | 28 | 1010.0 |
| 20260503191526 | 15 | 205 | 14.5 | 0.0 | 0.00 | 0.00 | 0.00 | 28 | 1010.1 |
| 20260503190027 | 15 | 183 | 11.3 | 0.0 | 0.00 | 0.00 | 0.00 | 31 | 1010.4 |
| 20260503184533 | 13 | 243 | 17.7 | 0.0 | 0.00 | 0.00 | 0.00 | 31 | 1010.4 |
| 20260503183019 | 14 | 195 | 11.3 | 0.0 | 0.00 | 0.00 | 0.00 | 33 | 1010.4 |
| 20260503181518 | 13 | 168 | 12.9 | 0.0 | 0.00 | 0.00 | 0.00 | 35 | 1010.7 |
| 20260503180024 | 12 | 199 | 12.9 | 0.0 | 0.00 | 0.00 | 0.00 | 34 | 1010.9 |
| 20260503174518 | 12 | 227 | 14.5 | 0.0 | 0.00 | 0.00 | 0.00 | 36 | 1010.8 |
| 20260503173016 | 12 | 200 | 9.7 | 0.0 | 0.00 | 0.00 | 0.00 | 40 | 1010.9 |
| 20260503171513 | 12 | 205 | 14.5 | 0.0 | 0.00 | 0.00 | 0.00 | 34 | 1010.9 |
| 20260503081540 | 7 | 308 | 1.6 | 0.0 | 0.00 | 0.00 | 0.00 | 50 | 1009.4 |
| 20260503071539 | 8 | 199 | 1.6 | 0.0 | 0.00 | 0.00 | 0.00 | 46 | 1009.3 |
| 20260503054535 | 10 | 327 | 3.2 | 0.0 | 0.00 | 0.00 | 0.00 | 40 | 1009.7 |
| 20260503053034 | 10 | 302 | 6.4 | 0.0 | 0.00 | 0.00 | 0.00 | 39 | 1009.9 |
| 20260503051525 | 10 | 323 | 4.8 | 0.0 | 0.00 | 0.00 | 0.00 | 40 | 1010.0 |
| 20260503050026 | 10 | 329 | 3.2 | 0.0 | 0.00 | 0.00 | 0.00 | 41 | 1010.2 |
| 20260503044526 | 10 | 278 | 3.2 | 0.0 | 0.00 | 0.00 | 0.00 | 41 | 1010.1 |
| 20260503043023 | 10 | 337 | 3.2 | 0.0 | 0.00 | 0.00 | 0.00 | 39 | 1010.2 |
| 20260503041522 | 10 | 308 | 3.2 | 0.0 | 0.00 | 0.00 | 0.00 | 38 | 1010.3 |
| 20260503040018 | 11 | 320 | 4.8 | 0.0 | 0.00 | 0.00 | 0.00 | 37 | 1010.2 |
| 20260503034533 | 11 | 327 | 1.6 | 0.0 | 0.00 | 0.00 | 0.00 | 38 | 1010.1 |
| 20260503033018 | 11 | 339 | 1.6 | 0.0 | 0.00 | 0.00 | 0.00 | 39 | 1010.1 |
| 20260503031520 | 11 | 271 | 1.6 | 0.0 | 0.00 | 0.00 | 0.00 | 38 | 1010.1 |
| 20260503030017 | 11 | 295 | 1.6 | 0.0 | 0.00 | 0.00 | 0.00 | 37 | 1010.2 |
| 20260503024517 | 11 | 320 | 1.6 | 0.0 | 0.00 | 0.00 | 0.00 | 35 | 1010.1 |
| 20260503023017 | 11 | 315 | 3.2 | 0.0 | 0.00 | 0.00 | 0.00 | 35 | 1010.0 |
| 20260503021517 | 12 | 336 | 3.2 | 0.0 | 0.00 | 0.00 | 0.00 | 35 | 1010.1 |
| 20260503020016 | 12 | 246 | 1.6 | 0.0 | 0.00 | 0.00 | 0.00 | 35 | 1010.2 |
| 20260503014518 | 12 | 278 | 3.2 | 0.0 | 0.00 | 0.00 | 0.00 | 35 | 1010.2 |
| 20260503013018 | 12 | 335 | 1.6 | 0.0 | 0.00 | 0.00 | 0.00 | 35 | 1010.1 |
| 20260503011516 | 12 | 335 | 3.2 | 0.0 | 0.00 | 0.00 | 0.00 | 34 | 1010.0 |
| 20260503010016 | 12 | 315 | 3.2 | 0.0 | 0.00 | 0.00 | 0.00 | 34 | 1009.8 |